GFSFLT2_prec_cloud_234.txt.gz
Cloud_Cover
2 5 21 0 0 0 0 2 0 0 0 0 0 0 0 0 0 0 0 0 0 0 0 0 0 0 0 0 0 0 0 4
0 0 4 5 0 3 0 1 0 0 0 0 0 3 0 0 0 0 0 0 0 0 0 0 0 0 0 0 0 0 4 6
0 0 5 0 0 3 10 0 5 3 1 0 68 0 0 1 0 0 0 0 0 0 0 0 0 0 4 2 0 0 22 100
0 39 36 0 5 71 0 0 0 13 0 7 0 0 0 0 0 0 0 0 0 0 0 0 3 1 0 5 5 27 25 69
0 4 11 0 0 83 1 0 0 2 3 0 0 0 0 0 0 0 0 0 0 0 4 2 7 95 65 55 98 100 35 18
1 5 8 8 5 0 33 0 0 0 35 0 0 0 0 0 0 0 0 0 0 0 0 5 5 29 76 100 100 100 100 77
5 10 94 87 74 5 5 3 0 0 5 13 3 0 0 0 0 0 0 4 5 4 1 0 5 5 5 5 14 99 100 100
10 27 11 0 2 5 65 34 0 5 2 4 5 0 0 0 0 0 3 5 2 5 5 5 5 5 41 9 6 90 84 100
99 96 5 0 0 0 18 35 95 63 2 5 17 0 0 0 0 0 5 5 5 5 5 5 5 5 5 5 47 100 100 100
100 54 5 5 0 0 1 80 86 3 2 26 0 0 0 3 1 0 3 5 5 5 5 5 5 5 5 5 4 5 5 5
100 19 5 5 0 0 3 4 3 3 5 5 4 2 0 0 4 0 0 5 6 22 6 5 12 5 5 5 1 1 3 5
63 42 5 0 0 0 5 5 4 5 5 5 5 5 0 0 2 0 5 5 4 5 5 5 5 5 5 1 2 0 0 0
0 0 0 0 0 0 0 27 25 5 5 5 5 5 17 5 1 3 0 0 5 0 5 3 1 0 0 0 0 0 0 4
0 0 0 0 0 0 0 5 6 18 31 38 56 66 12 5 5 5 5 2 0 0 4 5 2 5 0 0 0 0 0 0
0 0 0 0 0 0 4 2 5 5 5 6 27 83 84 63 9 5 5 5 1 0 0 0 1 0 0 0 0 0 0 0
0 0 0 0 0 0 2 5 6 13 5 5 5 5 5 6 5 5 5 5 0 0 0 0 0 0 0 0 0 0 0 0
0 0 0 0 0 0 0 0 3 4 1 1 0 0 0 0 2 0 0 0 0 0 0 0 0 0 0 0 0 0 0 0
2 0 0 0 0 0 0 0 0 0 0 0 0 0 0 0 0 0 0 0 0 0 0 0 0 0 0 0 0 0 0 0
100 41 2 0 0 0 0 0 0 0 0 0 0 0 0 0 0 0 0 0 0 0 0 0 0 0 0 0 0 0 0 0
99 18 5 12 4 0 0 0 0 0 0 0 0 0 1 3 0 0 0 0 0 0 0 0 0 0 0 0 0 0 5 4

GFSFLT2_prec_cloud_237.txt.gz
Cloud_Cover
99 98 45 0 0 0 0 0 0 0 0 0 0 0 0 0 0 0 0 0 0 0 0 0 0 4 0 0 0 0 0 0
91 100 84 45 2 2 0 0 0 0 0 0 0 0 0 0 0 0 0 0 0 0 0 0 0 0 3 4 0 0 3 0
24 70 65 45 21 12 2 0 0 5 0 0 0 2 0 0 0 0 0 0 0 0 0 0 4 0 0 5 4 88 99 72
0 10 29 16 3 12 19 1 6 8 10 20 0 1 0 0 0 0 0 0 0 0 0 0 5 15 26 100 90 98 41 3
0 0 2 0 2 8 11 22 28 6 4 5 1 0 0 0 1 0 13 0 0 0 0 0 0 4 70 76 31 58 99 100
0 5 1 2 8 5 4 2 0 4 0 10 5 0 0 0 0 1 11 10 0 0 3 0 0 0 0 0 3 62 53 95
1 5 4 4 37 7 15 5 2 0 5 2 31 2 0 0 0 0 0 2 0 0 4 2 1 3 4 3 5 5 4 3
5 5 3 44 40 12 3 5 6 3 57 5 5 18 0 0 0 0 0 0 3 4 5 5 4 0 0 0 0 0 0 2
98 97 12 17 6 4 0 4 5 8 78 5 4 46 0 0 0 0 4 0 5 5 5 5 5 5 5 5 5 3 0 0
100 100 100 89 74 64 5 0 4 44 52 24 81 13 2 5 5 2 0 5 5 5 5 5 13 19 7 5 5 5 5 0
80 100 100 100 100 81 5 5 0 4 1 5 5 5 5 15 8 5 5 3 0 3 5 5 5 5 5 3 2 0 1 2
0 100 100 100 99 91 64 5 4 0 4 5 5 5 10 18 14 8 24 5 5 3 1 1 1 0 0 0 0 0 0 0
0 9 100 100 100 86 9 45 5 0 5 5 5 5 11 5 5 5 8 50 27 5 5 0 0 0 0 0 0 0 0 0
0 0 0 4 5 5 28 9 2 0 2 5 5 18 30 5 6 25 5 6 5 5 5 2 0 0 0 0 0 0 0 0
0 0 0 0 0 0 3 3 5 4 5 5 28 74 38 12 46 58 18 7 5 5 1 1 0 0 0 0 0 0 0 0
5 0 0 0 0 0 0 0 0 2 5 2 5 44 43 7 11 9 35 6 5 5 1 0 0 0 0 0 0 0 0 0
0 5 4 0 0 0 0 0 0 0 0 0 5 1 5 5 5 5 5 5 0 0 0 0 0 0 0 0 0 0 0 0
0 0 5 0 0 0 0 0 0 0 0 0 0 0 1 5 5 1 0 0 0 0 0 0 0 0 0 0 0 0 0 0
0 0 2 35 0 0 0 0 0 0 0 0 0 0 5 3 0 0 0 0 4 5 2 0 0 0 0 0 0 0 0 1
4 0 5 42 98 98 62 1 0 0 0 1 0 4 5 5 2 0 0 5 5 5 5 5 1 0 0 0 0 0 0 10

GFSFLT2_prec_cloud_243.txt.gz
Cloud_Cover
62 10 2 0 0 0 0 0 0 0 0 0 0 0 0 0 0 0 0 0 4 5 0 5 5 57 5 4 2 5 5 4
88 45 36 31 21 9 1 0 0 0 0 0 0 0 0 0 0 0 0 0 0 4 5 5 7 5 36 96 60 6 4 1
46 48 34 59 41 9 5 1 0 0 0 0 6 25 17 0 3 0 0 0 0 0 0 2 5 0 1 92 98 86 91 75
98 84 98 99 36 35 26 16 14 20 29 29 38 40 45 40 18 3 0 0 0 0 0 0 0 0 0 0 1 7 2 11
86 100 100 100 40 86 69 69 78 63 42 34 38 44 54 55 58 49 32 5 9 0 0 0 0 0 0 0 0 0 0 0
77 95 100 100 44 100 66 96 98 100 78 36 31 49 70 85 64 100 69 37 12 17 25 1 0 0 0 0 0 0 0 0
66 98 100 100 55 87 81 86 96 78 81 46 25 26 37 48 46 78 95 44 28 23 21 13 1 0 0 0 0 0 0 0
46 97 82 98 52 59 58 67 68 63 57 42 12 5 6 18 28 44 52 42 28 20 12 12 5 0 0 0 0 0 0 0
0 35 67 53 16 35 28 35 37 34 24 9 6 0 5 5 10 14 17 34 24 26 12 4 5 0 0 0 0 0 0 0
0 0 8 2 1 12 5 5 4 5 5 2 5 5 6 5 5 3 2 16 6 14 10 5 6 7 5 5 5 4 1 0
12 4 0 0 0 48 12 9 5 5 5 5 6 5 11 7 5 40 5 1 0 1 5 5 5 5 2 5 5 5 5 5
100 5 4 0 0 2 99 11 18 5 31 13 31 24 10 5 5 5 2 0 0 4 5 5 5 5 5 5 5 7 5 5
100 6 17 5 0 0 0 99 99 7 5 80 85 56 58 45 14 5 0 0 0 0 3 5 0 5 5 5 28 18 5 4
63 37 100 86 5 0 0 0 60 100 100 88 21 100 59 17 5 5 5 5 1 5 5 5 5 5 5 5 5 5 0 0
100 100 53 20 60 3 0 0 0 17 98 100 100 100 100 73 33 7 5 5 5 5 5 9 5 5 5 5 4 4 0 0
48 95 96 87 39 10 1 0 0 0 0 19 100 100 100 100 26 35 5 5 5 1 5 5 5 5 6 5 5 2 0 0
100 95 98 100 89 5 5 5 5 0 0 0 0 5 41 65 15 5 5 5 0 0 5 5 5 5 5 5 5 5 5 5
100 100 87 60 68 52 5 5 5 5 8 2 0 0 0 0 3 10 5 6 5 5 5 5 5 5 5 5 5 5 5 5
100 100 100 100 36 100 95 6 8 18 94 54 5 0 0 0 0 0 0 5 21 54 10 5 5 5 5 5 5 5 5 5
100 100 100 100 100 100 100 100 18 12 97 100 26 5 5 0 0 0 0 0 0 0 5 5 5 5 5 0 0 0 1 5

GFSFLT2_prec_cloud_246.txt.gz
Cloud_Cover
91 32 8 0 0 0 0 0 0 0 1 0 0 0 0 0 0 0 0 0 0 0 0 5 5 37 4 5 5 0 0 0
100 52 48 33 17 0 0 0 0 0 0 0 0 0 0 0 0 0 0 0 0 0 0 0 0 4 37 6 5 0 1 4
100 81 54 44 37 8 0 0 0 0 2 0 4 13 7 0 0 0 0 0 0 0 0 0 0 1 1 2 0 0 3 0
100 87 59 28 32 22 27 13 9 22 32 34 52 42 40 24 5 0 0 0 0 0 0 0 0 2 0 0 0 0 0 0
99 61 7 2 51 46 54 63 46 61 45 48 47 71 86 84 72 50 28 5 5 0 0 0 0 0 0 0 0 0 0 0
11 2 0 25 82 42 57 56 92 99 98 51 56 99 100 100 100 100 88 34 10 13 21 0 0 0 0 0 0 0 0 0
8 0 18 87 100 39 62 60 64 42 99 82 35 61 97 100 100 100 100 48 22 18 21 8 0 0 0 0 0 0 0 0
29 30 51 81 100 61 64 37 36 47 91 100 33 15 34 80 86 97 100 88 35 15 9 10 3 0 0 0 0 0 0 0
34 38 79 98 100 89 63 54 68 79 87 84 36 6 9 5 26 43 56 45 30 30 10 2 6 0 0 0 0 0 0 0
2 23 77 100 100 100 84 86 91 71 76 53 32 6 2 5 15 13 29 41 35 34 28 23 21 9 0 0 0 0 0 0
13 8 41 100 100 100 61 62 58 36 28 29 35 10 4 5 3 5 18 19 24 11 28 2 5 8 12 0 0 0 0 0
9 88 5 46 66 69 37 32 31 8 5 3 3 7 4 5 5 5 5 9 13 23 6 20 0 0 0 0 0 0 0 0
5 13 78 4 3 26 24 28 26 11 5 26 5 5 5 5 48 30 5 17 6 5 3 0 15 0 0 0 0 0 5 0
100 46 42 41 54 5 31 24 0 5 3 60 100 15 25 66 13 6 6 8 5 5 5 5 0 2 0 0 5 4 5 5
100 100 97 42 34 0 92 11 24 5 4 1 4 7 100 100 100 100 96 73 56 40 6 6 5 20 4 5 5 2 5 5
100 100 100 100 35 3 5 100 7 5 0 0 0 2 14 94 100 100 100 100 79 13 5 5 5 5 19 5 5 5 0 3
100 100 100 100 100 29 55 28 90 27 8 5 4 0 0 4 5 12 95 100 98 25 13 5 6 5 5 23 5 5 5 2
100 100 100 100 100 100 100 100 100 100 100 97 5 5 1 1 0 0 2 5 6 32 96 97 47 8 5 5 5 5 5 5
0 22 100 100 100 100 100 100 100 100 100 100 99 13 6 20 2 0 0 0 0 0 4 5 5 18 17 42 5 5 5 3
96 78 8 74 100 100 100 100 100 100 100 100 56 100 90 3 5 5 5 5 5 6 5 5 0 0 0 1 2 7 0 0

GFSFLT2_prec_cloud_249.txt.gz
Cloud_Cover
7 0 0 0 0 0 0 0 4 6 0 0 0 0 0 0 0 0 0 0 0 0 0 0 0 0 0 0 0 0 0 0
45 7 0 0 0 4 0 0 0 0 0 0 0 2 0 0 0 0 0 0 0 0 0 0 0 0 0 0 0 0 0 0
92 39 1 0 0 1 3 4 0 4 1 1 44 0 0 5 4 0 0 0 0 0 0 0 0 0 0 0 0 0 0 0
100 68 3 0 0 0 0 0 0 0 0 0 0 0 0 0 2 0 0 0 0 0 0 0 0 0 0 0 0 0 0 0
100 98 26 0 0 0 0 0 0 0 1 2 0 0 0 0 0 1 0 0 0 0 0 0 0 0 0 0 0 0 0 0
61 100 45 7 0 0 0 0 0 0 6 17 9 61 70 11 0 0 2 0 0 0 0 0 0 0 0 0 0 0 0 0
58 100 35 22 16 0 0 0 0 0 7 62 0 15 43 41 15 0 0 0 0 0 0 0 0 0 0 0 0 0 0 0
24 63 42 2 14 67 6 0 0 0 0 18 18 0 0 0 47 8 0 2 0 0 0 0 0 0 0 0 0 0 0 0
5 22 40 26 13 61 63 13 10 0 0 0 58 0 0 0 0 0 0 0 0 0 0 0 0 0 0 0 0 0 0 0
57 14 12 31 65 93 100 45 26 0 0 0 8 0 0 0 0 0 0 0 0 0 0 0 0 0 0 0 0 0 0 0
29 100 48 13 40 71 100 100 89 0 1 0 0 0 0 0 0 5 2 5 1 0 1 1 0 0 0 0 0 0 0 0
5 5 66 5 7 9 79 100 100 30 1 0 0 0 0 0 1 4 5 5 5 6 2 1 2 2 0 0 0 0 0 0
22 5 90 28 5 64 53 100 100 47 0 0 0 0 0 0 0 0 5 5 5 5 3 5 5 5 5 0 0 0 0 0
100 40 61 100 77 5 5 5 0 0 5 33 0 0 0 4 5 5 5 5 5 7 12 45 24 31 5 5 4 4 3 0
100 100 100 100 100 77 96 47 6 10 3 29 4 0 0 0 15 98 92 74 84 56 46 49 69 54 13 28 1 0 5 5
100 100 100 100 100 100 100 100 100 100 85 0 62 16 3 3 0 1 10 34 23 54 98 70 100 14 92 23 5 5 5 5
40 100 100 100 100 100 100 100 100 100 100 91 6 91 37 5 5 3 5 0 4 5 8 15 80 96 34 60 7 3 0 5
12 100 100 100 100 100 100 100 100 100 100 100 100 98 8 17 46 9 4 5 5 3 2 5 4 5 2 3 4 13 11 2
1 8 99 100 100 100 100 100 100 100 100 100 100 100 47 5 26 78 5 5 5 5 56 5 5 5 12 36 5 5 3 4
67 29 49 100 100 100 100 100 100 100 100 100 100 100 100 100 58 11 52 2 1 4 5 5 3 3 5 5 5 18 5 6

GFSFLT2_prec_cloud_252.txt.gz
Cloud_Cover
0 0 0 20 0 0 0 0 0 0 0 0 0 0 0 0 0 0 0 0 0 0 0 0 0 0 0 0 0 0 0 0
0 0 0 0 1 7 0 0 0 0 0 0 0 4 0 0 0 0 0 0 0 0 0 0 0 0 0 0 0 0 0 0
0 0 0 0 0 3 51 23 1 8 2 1 67 0 0 5 0 0 0 0 0 0 0 0 0 0 0 0 0 0 0 0
1 0 0 0 0 0 0 0 0 0 0 0 0 0 0 0 0 0 0 0 0 0 0 0 0 0 0 0 0 0 0 0
0 3 7 0 0 0 0 0 0 0 0 0 0 0 0 0 0 1 0 0 0 0 0 0 0 0 0 0 0 0 0 0
0 0 0 0 0 0 0 0 0 0 0 0 0 0 0 0 0 0 0 0 0 0 0 0 0 0 0 0 0 0 0 0
5 2 0 0 0 0 0 0 0 0 0 0 0 0 0 0 0 0 0 0 0 0 0 0 0 0 0 0 0 0 0 0
2 2 2 4 4 0 0 0 0 0 0 0 0 0 0 0 0 0 0 0 0 0 0 0 0 0 0 0 0 0 0 0
5 5 0 2 5 5 1 0 0 0 0 0 0 0 0 0 0 0 0 0 0 0 0 0 0 0 0 0 0 0 0 0
4 5 7 2 0 5 5 2 0 0 0 0 0 0 0 0 0 0 0 0 0 0 0 0 0 0 0 0 0 0 0 0
6 5 5 5 5 2 1 0 2 1 0 0 0 0 0 0 0 5 2 0 0 1 0 0 0 1 0 0 0 0 0 0
100 74 32 87 57 14 14 3 0 0 4 1 4 0 0 0 0 0 2 3 4 1 5 5 5 3 5 5 5 3 0 0
100 100 17 6 54 100 43 5 1 3 0 5 5 0 0 0 0 0 0 0 1 5 5 5 5 5 5 25 5 5 5 5
100 100 100 63 25 12 98 100 75 5 42 33 1 0 0 0 0 0 0 0 2 4 5 5 5 11 32 41 6 7 11 5
54 100 100 100 99 14 26 78 74 93 79 87 4 0 0 0 3 5 4 5 5 5 19 50 37 65 5 36 18 38 88 24
0 16 98 100 100 99 99 100 100 100 91 29 100 98 13 0 0 21 18 5 0 1 1 12 26 84 21 14 12 48 26 5
0 0 3 12 100 100 100 100 100 100 100 100 100 100 85 49 2 0 2 5 0 0 0 0 0 2 38 5 8 5 2 0
0 0 11 51 99 100 100 100 100 100 100 100 100 100 95 81 100 8 2 0 0 0 0 1 2 3 3 5 5 5 3 0
1 3 0 96 100 100 100 100 100 100 100 100 100 100 100 100 86 100 100 82 5 1 0 4 4 46 39 51 17 12 5 5
5 8 6 91 100 100 100 100 100 100 100 100 100 100 100 100 100 97 87 97 5 30 41 4 5 98 36 15 79 94 72 83

GFSFLT2_prec_cloud_255.txt.gz
Cloud_Cover
0 0 0 8 0 0 0 0 0 0 0 0 0 0 0 0 0 0 0 0 0 0 0 0 0 0 0 0 0 0 0 0
0 0 0 0 1 10 0 0 0 0 0 0 0 6 0 0 0 0 0 0 0 0 0 0 0 0 0 0 0 0 0 2
0 0 0 0 0 3 53 26 1 9 1 2 68 0 0 5 0 0 0 0 0 0 0 0 0 0 0 0 0 0 12 0
0 0 0 0 0 0 0 0 0 0 0 0 0 0 0 0 0 0 0 0 0 0 0 0 0 0 0 0 0 0 0 0
0 4 1 0 0 0 0 0 0 0 0 2 0 0 0 0 0 1 0 0 0 0 0 0 0 0 0 0 0 0 0 0
5 2 8 5 0 0 0 0 0 0 0 0 0 0 0 0 0 0 0 0 0 0 0 0 0 0 0 0 0 0 0 2
99 14 4 1 0 0 0 0 0 0 0 0 0 0 0 0 0 0 0 0 0 0 0 0 0 0 0 0 0 0 0 0
13 32 40 5 0 0 0 0 0 0 0 0 0 0 0 0 4 3 0 0 0 0 0 0 0 0 0 0 0 0 0 0
35 73 48 88 23 5 5 0 0 0 0 0 0 0 0 0 4 5 5 4 0 0 0 0 0 0 0 0 0 0 0 0
23 20 24 10 27 48 5 37 1 0 0 0 0 0 0 2 3 5 5 0 5 3 0 0 0 0 0 0 0 0 0 0
84 47 48 36 17 23 91 90 42 5 0 0 3 4 0 0 0 0 3 4 5 3 5 3 4 2 0 0 0 3 1 0
100 100 98 21 47 44 24 18 8 5 50 23 3 0 3 5 4 0 0 0 0 5 5 5 5 5 5 6 5 5 5 5
96 100 100 100 100 100 100 100 71 54 42 42 53 37 0 0 0 0 0 0 0 2 5 5 5 5 6 5 5 5 5 5
5 5 29 43 97 100 100 100 100 76 87 97 75 5 5 0 0 0 0 0 0 0 0 2 0 4 5 5 7 5 4 9
1 2 5 5 16 93 100 100 100 82 92 56 94 86 66 7 5 1 0 0 0 0 0 0 0 0 2 7 6 5 1 81
4 0 0 0 3 30 100 100 95 100 100 97 80 35 28 97 4 1 0 0 0 0 0 0 0 0 0 0 0 1 24 88
5 0 0 0 7 73 38 100 100 100 100 100 100 95 99 46 94 100 73 0 0 0 0 0 0 0 0 2 2 4 5 5
4 3 0 0 0 79 98 33 98 100 100 100 100 100 100 99 100 100 100 100 100 78 1 0 0 0 5 8 9 5 5 32
2 2 0 8 0 44 99 100 100 100 100 100 100 100 100 100 99 100 100 100 81 100 98 86 69 8 21 5 5 8 5 5
0 0 0 1 0 2 100 100 100 100 100 100 100 100 100 84 100 100 100 100 100 100 100 100 100 96 51 61 20 31 18 6

GFSFLT2_prec_cloud_258.txt.gz
Cloud_Cover
0 4 29 15 2 0 0 0 0 0 0 0 0 0 0 0 0 0 0 0 0 0 0 0 0 0 0 0 0 0 0 0
1 0 1 13 12 5 0 0 0 0 0 0 0 6 0 0 0 0 0 0 0 0 0 0 0 0 0 0 0 0 0 1
2 0 0 0 0 7 32 5 1 9 0 0 68 0 0 0 0 0 0 0 0 0 0 0 0 0 0 0 0 0 0 67
4 12 3 0 0 1 0 0 0 0 0 0 0 2 0 0 0 0 0 0 0 0 0 0 0 0 0 0 0 0 0 81
51 5 5 5 3 4 0 0 0 0 0 0 0 0 0 0 0 0 0 0 0 0 0 0 0 0 0 0 0 0 0 0
32 40 17 9 8 1 0 0 0 0 0 0 0 0 0 0 3 1 0 0 0 0 0 0 0 0 0 0 0 0 0 0
5 53 100 84 67 90 4 0 0 0 0 0 0 2 0 0 0 1 3 0 0 0 0 0 0 0 0 0 0 0 0 0
12 0 20 13 10 20 99 8 5 5 3 0 0 0 0 0 0 0 3 3 0 0 0 0 0 0 0 0 0 0 0 0
99 49 0 93 28 5 49 100 31 14 5 3 4 0 0 0 0 0 0 3 5 0 3 0 0 3 4 4 4 1 0 0
36 97 83 38 56 42 39 32 83 85 20 13 5 0 5 5 0 0 0 0 0 0 0 0 0 0 0 5 5 5 5 5
8 9 99 100 100 72 39 95 30 98 99 12 18 5 5 4 5 4 1 0 0 0 3 4 4 4 3 0 0 0 5 5
83 25 45 100 100 100 100 93 98 70 20 72 76 20 5 16 0 0 1 0 0 0 0 0 1 2 5 5 0 5 5 5
87 49 88 92 100 100 100 100 100 100 100 35 35 100 86 11 5 3 0 0 0 0 0 0 0 0 0 2 0 5 5 5
97 47 45 59 41 95 100 100 99 100 100 100 100 55 93 100 29 5 5 0 0 0 0 0 0 0 0 0 2 0 5 0
54 5 2 6 10 24 84 97 100 95 72 100 100 100 100 43 41 96 30 5 5 0 1 2 0 0 0 0 0 1 0 5
100 100 88 56 14 6 5 5 6 61 100 42 65 72 100 100 100 45 38 14 5 5 5 5 0 0 0 0 0 0 0 4
44 21 4 5 5 2 2 5 5 5 58 99 100 100 100 100 100 100 99 92 10 37 30 5 2 5 0 0 0 2 5 5
8 7 5 3 5 4 68 9 0 0 0 21 100 84 97 98 97 62 100 100 58 34 58 19 100 95 51 18 1 0 4 2
4 0 2 3 4 0 0 4 5 0 0 21 0 41 100 100 100 100 100 100 100 100 87 91 100 100 100 100 100 73 3 4
0 0 0 0 0 0 0 0 0 0 4 9 98 91 30 100 100 93 94 100 99 100 99 100 96 100 100 100 100 100 100 100